TYA321 UNKL-URSS

Flight info

Callsign TYA321
Flight time N/A
Altitude 38000
Route UNKL/29 K0859F320 APRU2F APRUS B926 ODIDA B808 DAKIN N55 ATNON/K0857F340 N55 OGANU P574 AKT N37 IPLED/K0865F360 DCT GOTIK DCT MEMZA DCT VENFO DCT BINOL BINO1K URSS/02
Aircraft B738/M-D/S

Departure

Time 2026-05-06 07:36
Airport Krasnoyarsk International Airport (UNKL)

Arrival

Time N/A
Airport Sochi International Airport (URSS)
Time Latitude Longitude Altitude Speed Heading
2026-05-06 07:27 56.18063 92.47601 948 ft 0 kts 20°
2026-05-06 07:30 56.18086 92.47620 948 ft 6 kts 36°
2026-05-06 07:30 56.18096 92.47643 948 ft 7 kts 64°
2026-05-06 07:30 56.18053 92.47865 948 ft 15 kts 111°
2026-05-06 07:30 56.18008 92.48068 948 ft 20 kts 110°
2026-05-06 07:31 56.17918 92.48289 948 ft 23 kts 127°
2026-05-06 07:31 56.17725 92.48450 948 ft 16 kts 113°
2026-05-06 07:32 56.17499 92.49403 948 ft 41 kts 114°
2026-05-06 07:32 56.17386 92.49878 948 ft 43 kts 112°
2026-05-06 07:32 56.17291 92.50275 948 ft 46 kts 112°
2026-05-06 07:33 56.17284 92.50307 948 ft 47 kts 112°
2026-05-06 07:33 56.17145 92.50890 948 ft 54 kts 113°
2026-05-06 07:33 56.16996 92.51520 948 ft 52 kts 114°
2026-05-06 07:33 56.16869 92.51974 948 ft 36 kts 136°
2026-05-06 07:34 56.16697 92.52064 948 ft 14 kts 184°
2026-05-06 07:34 56.16661 92.51968 948 ft 19 kts 294°
2026-05-06 07:35 56.16683 92.51881 948 ft 0 kts 292°
2026-05-06 07:35 56.16683 92.51879 948 ft 0 kts 292°
2026-05-06 07:35 56.16747 92.51614 948 ft 64 kts 292°
2026-05-06 07:35 56.16910 92.50925 948 ft 118 kts 293°
2026-05-06 07:36 56.17329 92.49194 1067 ft 175 kts 291°
2026-05-06 07:36 56.17816 92.47355 2222 ft 161 kts 292°
2026-05-06 07:36 56.18388 92.44917 3135 ft 173 kts 287°
2026-05-06 07:36 56.18820 92.42851 3771 ft 184 kts 289°
2026-05-06 07:37 56.19320 92.40657 4440 ft 196 kts 290°
2026-05-06 07:37 56.19866 92.38354 5100 ft 209 kts 291°
2026-05-06 07:37 56.20440 92.35932 5754 ft 221 kts 291°
2026-05-06 07:37 56.20849 92.34207 6180 ft 231 kts 291°
2026-05-06 07:38 56.21497 92.31463 6831 ft 247 kts 291°
2026-05-06 07:38 56.21819 92.27370 7715 ft 265 kts 259°
2026-05-06 07:38 56.21184 92.24277 8617 ft 270 kts 246°
2026-05-06 07:38 56.20368 92.21249 9547 ft 273 kts 246°
2026-05-06 07:39 56.19594 92.18154 10373 ft 278 kts 249°
2026-05-06 07:39 56.19091 92.15968 10768 ft 288 kts 250°
2026-05-06 07:39 56.18097 92.11407 11575 ft 305 kts 251°
2026-05-06 07:39 56.17588 92.09036 11975 ft 314 kts 251°
2026-05-06 07:40 56.16516 92.04058 12757 ft 333 kts 251°
2026-05-06 07:40 56.15654 92.00075 13275 ft 348 kts 251°
2026-05-06 07:40 56.14767 91.96000 13937 ft 358 kts 251°
2026-05-06 07:40 56.13858 91.91853 14821 ft 360 kts 251°
2026-05-06 07:41 56.12935 91.87662 15596 ft 365 kts 251°
2026-05-06 07:41 56.12015 91.83501 16410 ft 367 kts 251°
2026-05-06 07:41 56.11066 91.79199 17201 ft 370 kts 251°
2026-05-06 07:41 56.10442 91.76372 17713 ft 372 kts 251°
2026-05-06 07:42 56.09174 91.70634 18725 ft 376 kts 252°
2026-05-06 07:42 56.08222 91.66348 19537 ft 376 kts 252°
2026-05-06 07:42 56.07252 91.61995 20273 ft 378 kts 252°
2026-05-06 07:42 56.06275 91.57628 20949 ft 381 kts 252°
2026-05-06 07:43 56.05297 91.53260 21540 ft 385 kts 252°
2026-05-06 07:43 56.04305 91.48827 22189 ft 388 kts 252°
2026-05-06 07:43 56.03301 91.44344 22832 ft 390 kts 253°
2026-05-06 07:43 56.02300 91.39876 23444 ft 392 kts 253°
2026-05-06 07:44 56.01279 91.35362 24046 ft 395 kts 253°
2026-05-06 07:44 56.00245 91.30798 24562 ft 400 kts 251°
2026-05-06 07:44 55.99177 91.26263 25138 ft 403 kts 252°
2026-05-06 07:44 55.98241 91.21534 25720 ft 403 kts 257°
2026-05-06 07:45 55.97533 91.16706 26338 ft 403 kts 260°
2026-05-06 07:45 55.96934 91.11893 26962 ft 404 kts 261°
2026-05-06 07:45 55.96371 91.06980 27346 ft 410 kts 262°
2026-05-06 07:45 55.95810 91.01951 27897 ft 412 kts 262°
2026-05-06 07:46 55.95253 90.96994 28431 ft 414 kts 262°
2026-05-06 07:46 55.94677 90.91941 28942 ft 417 kts 262°
2026-05-06 07:46 55.94091 90.86903 29658 ft 415 kts 262°
2026-05-06 07:46 55.93503 90.81934 30459 ft 410 kts 262°
2026-05-06 07:47 55.93111 90.78661 31038 ft 405 kts 262°
2026-05-06 07:47 55.92331 90.72192 31877 ft 401 kts 262°
2026-05-06 07:47 55.91744 90.67342 32322 ft 402 kts 262°
2026-05-06 07:47 55.91153 90.62468 32834 ft 401 kts 262°
2026-05-06 07:48 55.90762 90.59255 33147 ft 400 kts 262°
2026-05-06 07:48 55.90166 90.54381 33635 ft 400 kts 262°
2026-05-06 07:48 55.89377 90.47963 34289 ft 397 kts 262°
2026-05-06 07:48 55.88785 90.43175 34781 ft 395 kts 262°
2026-05-06 07:49 55.88202 90.38467 35116 ft 394 kts 262°
2026-05-06 07:49 55.87607 90.33662 35265 ft 399 kts 261°
2026-05-06 07:49 55.87010 90.28844 35531 ft 401 kts 261°
2026-05-06 07:49 55.86411 90.24034 35905 ft 399 kts 261°
2026-05-06 07:50 55.85806 90.19199 36193 ft 399 kts 261°
2026-05-06 07:50 55.85205 90.14403 36448 ft 401 kts 261°
2026-05-06 07:50 55.84595 90.09559 36683 ft 403 kts 261°
2026-05-06 07:50 55.83986 90.04745 36971 ft 404 kts 261°
2026-05-06 07:51 55.83370 89.99892 37285 ft 405 kts 261°
2026-05-06 07:51 55.82966 89.96729 37571 ft 403 kts 261°
2026-05-06 07:51 55.82132 89.90218 37946 ft 403 kts 261°
2026-05-06 07:51 55.81509 89.85365 37963 ft 407 kts 261°
2026-05-06 07:52 55.80232 89.75476 37969 ft 417 kts 260°
2026-05-06 07:52 55.78921 89.65390 37971 ft 421 kts 260°
2026-05-06 07:53 55.77824 89.57023 37972 ft 419 kts 260°
2026-05-06 07:53 55.76500 89.46987 37969 ft 420 kts 260°
2026-05-06 07:54 55.74938 89.35226 37972 ft 418 kts 260°
2026-05-06 07:54 55.73605 89.25246 37968 ft 421 kts 259°
2026-05-06 07:55 55.72248 89.15163 37975 ft 418 kts 259°
2026-05-06 07:55 55.70894 89.05167 37968 ft 420 kts 259°
2026-05-06 07:56 55.69534 88.95180 37969 ft 419 kts 259°
2026-05-06 07:56 55.68170 88.85179 37968 ft 419 kts 259°
2026-05-06 07:57 55.66794 88.75130 37967 ft 420 kts 259°
2026-05-06 07:57 55.65416 88.65147 37961 ft 418 kts 259°
2026-05-06 07:58 55.64038 88.55227 37961 ft 419 kts 259°
2026-05-06 07:58 55.62872 88.46896 37965 ft 419 kts 259°
2026-05-06 07:59 55.61234 88.35262 37963 ft 419 kts 259°
2026-05-06 07:59 55.59815 88.25248 37959 ft 420 kts 258°
2026-05-06 08:00 55.58400 88.15329 37958 ft 420 kts 258°
2026-05-06 08:00 55.56966 88.05347 37965 ft 420 kts 258°
2026-05-06 08:01 55.55530 87.95397 37951 ft 420 kts 258°
2026-05-06 08:01 55.54087 87.85474 37957 ft 420 kts 258°
2026-05-06 08:02 55.52873 87.77171 37950 ft 419 kts 258°
2026-05-06 08:02 55.51177 87.65645 37954 ft 420 kts 258°
2026-05-06 08:03 55.49709 87.55737 37942 ft 419 kts 258°
2026-05-06 08:03 55.48467 87.47427 37951 ft 419 kts 257°
2026-05-06 08:04 55.46725 87.35880 37946 ft 419 kts 257°
2026-05-06 08:04 55.45227 87.26020 37937 ft 419 kts 257°
2026-05-06 08:05 55.43725 87.16189 37940 ft 419 kts 257°
2026-05-06 08:05 55.42210 87.06327 37928 ft 418 kts 257°
2026-05-06 08:06 55.40683 86.96448 37931 ft 420 kts 256°
2026-05-06 08:06 55.39403 86.88219 37939 ft 419 kts 256°
2026-05-06 08:07 55.37878 86.78467 37955 ft 419 kts 256°
2026-05-06 08:07 55.36074 86.66994 37950 ft 418 kts 256°
2026-05-06 08:08 55.34775 86.58777 37928 ft 418 kts 256°
2026-05-06 08:08 55.32952 86.47320 37950 ft 418 kts 256°
2026-05-06 08:09 55.31382 86.37524 37926 ft 418 kts 256°
2026-05-06 08:09 55.29809 86.27764 37926 ft 418 kts 255°
2026-05-06 08:10 55.28227 86.17995 37933 ft 417 kts 255°
2026-05-06 08:10 55.26954 86.08074 37936 ft 416 kts 262°
2026-05-06 08:11 55.26335 85.98031 37924 ft 418 kts 265°
2026-05-06 08:11 55.25881 85.87884 37919 ft 416 kts 265°
2026-05-06 08:12 55.25431 85.77840 37899 ft 417 kts 266°
2026-05-06 08:12 55.24955 85.67759 37908 ft 418 kts 265°
2026-05-06 08:13 55.24450 85.57585 37917 ft 418 kts 265°
2026-05-06 08:13 55.23937 85.47534 37900 ft 417 kts 265°
2026-05-06 08:14 55.23409 85.37417 37897 ft 418 kts 265°
2026-05-06 08:14 55.22868 85.27238 37879 ft 419 kts 264°
2026-05-06 08:15 55.22319 85.17103 37880 ft 419 kts 264°
2026-05-06 08:15 55.21854 85.08626 37891 ft 420 kts 264°
2026-05-06 08:16 55.21201 84.96886 37883 ft 419 kts 264°
2026-05-06 08:16 55.20626 84.86725 37871 ft 419 kts 264°
2026-05-06 08:17 55.20049 84.76685 37880 ft 419 kts 264°
2026-05-06 08:17 55.19446 84.66603 37876 ft 419 kts 264°
2026-05-06 08:18 55.18680 84.56543 37871 ft 419 kts 262°
2026-05-06 08:18 55.18056 84.48193 37885 ft 418 kts 264°
2026-05-06 08:19 55.17446 84.38079 37869 ft 419 kts 265°
2026-05-06 08:19 55.16785 84.26612 37876 ft 420 kts 264°
2026-05-06 08:20 55.16187 84.16531 37865 ft 420 kts 264°
2026-05-06 08:20 55.15579 84.06531 37877 ft 421 kts 264°
2026-05-06 08:21 55.14947 83.96354 37884 ft 422 kts 264°
2026-05-06 08:21 55.14310 83.86269 37879 ft 419 kts 264°
2026-05-06 08:22 55.13663 83.76150 37875 ft 421 kts 264°
2026-05-06 08:22 55.13006 83.66041 37849 ft 419 kts 263°
2026-05-06 08:23 55.12341 83.55920 37857 ft 420 kts 264°
2026-05-06 08:23 55.11666 83.45798 37844 ft 420 kts 264°
2026-05-06 08:24 55.10988 83.35727 37857 ft 420 kts 264°
2026-05-06 08:24 55.10412 83.27277 37848 ft 420 kts 263°
2026-05-06 08:25 55.09599 83.15512 37847 ft 421 kts 263°
2026-05-06 08:25 55.08886 83.05322 37851 ft 421 kts 263°
2026-05-06 08:26 55.08292 82.96937 37866 ft 422 kts 263°
2026-05-06 08:26 55.07485 82.85158 37851 ft 422 kts 264°
2026-05-06 08:27 55.07077 82.76627 37851 ft 424 kts 266°
2026-05-06 08:27 55.06593 82.64745 37869 ft 423 kts 266°
2026-05-06 08:28 55.06158 82.54524 37866 ft 422 kts 266°
2026-05-06 08:28 55.05780 82.46053 37851 ft 422 kts 266°
2026-05-06 08:29 55.05227 82.34196 37856 ft 423 kts 265°
2026-05-06 08:29 55.04821 82.25717 37859 ft 423 kts 264°
2026-05-06 08:30 55.04323 82.15556 37858 ft 423 kts 265°
2026-05-06 08:30 55.03811 82.05359 37845 ft 423 kts 265°
2026-05-06 08:31 55.03294 81.95162 37858 ft 423 kts 265°
2026-05-06 08:31 55.02783 81.85271 37847 ft 421 kts 265°
2026-05-06 08:32 55.02247 81.75056 37847 ft 424 kts 265°
2026-05-06 08:32 55.01705 81.64884 37857 ft 423 kts 265°
2026-05-06 08:33 55.01155 81.54722 37852 ft 423 kts 265°
2026-05-06 08:33 55.00596 81.44579 37847 ft 423 kts 265°
2026-05-06 08:34 54.99741 81.29373 37851 ft 422 kts 264°
2026-05-06 08:35 54.99065 81.17548 37857 ft 423 kts 264°
2026-05-06 08:35 54.98576 81.09104 37856 ft 422 kts 264°
2026-05-06 08:36 54.97983 80.99043 37869 ft 421 kts 264°
2026-05-06 08:36 54.97279 80.87266 37867 ft 421 kts 264°
2026-05-06 08:37 54.96669 80.77165 37870 ft 422 kts 264°
2026-05-06 08:37 54.96154 80.68729 37863 ft 422 kts 264°
2026-05-06 08:38 54.95529 80.58598 37872 ft 422 kts 264°
2026-05-06 08:38 54.94891 80.48457 37867 ft 422 kts 264°
2026-05-06 08:39 54.94249 80.38377 37865 ft 422 kts 264°
2026-05-06 08:39 54.93482 80.26510 37872 ft 422 kts 263°
2026-05-06 08:40 54.92819 80.16389 37873 ft 424 kts 263°
2026-05-06 08:40 54.92262 80.07966 37876 ft 423 kts 264°
2026-05-06 08:41 54.91581 79.97826 37869 ft 422 kts 264°
2026-05-06 08:41 54.90783 79.86105 37876 ft 422 kts 264°
2026-05-06 08:42 54.90202 79.77657 37872 ft 423 kts 264°
2026-05-06 08:42 54.89381 79.65851 37862 ft 423 kts 263°
2026-05-06 08:43 54.88663 79.55710 37884 ft 423 kts 264°
2026-05-06 08:43 54.88060 79.47279 37871 ft 425 kts 264°
2026-05-06 08:44 54.87330 79.37166 37873 ft 425 kts 263°
2026-05-06 08:44 54.86585 79.26959 37862 ft 426 kts 263°
2026-05-06 08:45 54.85712 79.15162 37887 ft 426 kts 263°
2026-05-06 08:45 54.85075 79.06662 37879 ft 426 kts 263°
2026-05-06 08:46 54.84303 78.96468 37871 ft 426 kts 263°
2026-05-06 08:46 54.83529 78.86346 37889 ft 428 kts 263°
2026-05-06 08:47 54.82738 78.76128 37889 ft 427 kts 263°
2026-05-06 08:47 54.81944 78.65984 37893 ft 426 kts 263°
2026-05-06 08:48 54.81141 78.55823 37888 ft 427 kts 263°
2026-05-06 08:48 54.80189 78.43922 37894 ft 427 kts 263°
2026-05-06 08:49 54.79504 78.35438 37890 ft 427 kts 263°
2026-05-06 08:49 54.78534 78.23589 37906 ft 428 kts 262°
2026-05-06 08:50 54.77691 78.13397 37899 ft 427 kts 262°
2026-05-06 08:50 54.76845 78.03281 37895 ft 429 kts 262°
2026-05-06 08:51 54.76122 77.94719 37908 ft 429 kts 262°
2026-05-06 08:51 54.75258 77.84573 37922 ft 428 kts 262°
2026-05-06 08:52 54.74379 77.74367 37925 ft 429 kts 262°
2026-05-06 08:52 54.73346 77.62494 37925 ft 430 kts 262°
2026-05-06 08:53 54.72601 77.54009 37924 ft 430 kts 262°
2026-05-06 08:53 54.71692 77.43763 37937 ft 430 kts 262°
2026-05-06 08:54 54.70778 77.33569 37928 ft 431 kts 262°
2026-05-06 08:54 54.69861 77.23434 37944 ft 430 kts 262°
2026-05-06 08:55 54.68776 77.11556 37937 ft 432 kts 262°
2026-05-06 08:55 54.67994 77.03061 37938 ft 432 kts 262°
2026-05-06 08:56 54.67039 76.92792 37946 ft 431 kts 262°
2026-05-06 08:56 54.66086 76.82642 37952 ft 432 kts 262°
2026-05-06 08:57 54.64957 76.70744 37946 ft 431 kts 262°
2026-05-06 08:57 54.64144 76.62252 37938 ft 432 kts 262°
2026-05-06 08:58 54.63154 76.51999 37964 ft 433 kts 262°
2026-05-06 08:58 54.62162 76.41821 37947 ft 431 kts 262°
2026-05-06 08:59 54.61161 76.31632 37953 ft 433 kts 261°
2026-05-06 08:59 54.59979 76.19722 37957 ft 432 kts 261°
2026-05-06 09:00 54.59130 76.11243 37948 ft 432 kts 261°
2026-05-06 09:00 54.58107 76.01115 37960 ft 432 kts 261°
2026-05-06 09:01 54.57070 75.90939 37958 ft 431 kts 261°
2026-05-06 09:01 54.56024 75.80753 37961 ft 432 kts 261°
2026-05-06 09:02 54.54975 75.70640 37964 ft 432 kts 261°
2026-05-06 09:02 54.53912 75.60474 37963 ft 432 kts 261°
2026-05-06 09:03 54.52843 75.50325 37973 ft 432 kts 261°
2026-05-06 09:03 54.51770 75.40216 37981 ft 431 kts 261°
2026-05-06 09:04 54.50682 75.30051 37975 ft 432 kts 260°
2026-05-06 09:04 54.49591 75.19932 37980 ft 431 kts 260°
2026-05-06 09:05 54.48310 75.08155 37989 ft 431 kts 260°
2026-05-06 09:05 54.47389 74.99758 37981 ft 431 kts 260°
2026-05-06 09:06 54.46263 74.89572 37993 ft 432 kts 260°
2026-05-06 09:06 54.45139 74.79492 37999 ft 430 kts 260°
2026-05-06 09:07 54.44005 74.69397 38001 ft 432 kts 261°
2026-05-06 09:07 54.42868 74.59353 37999 ft 433 kts 261°
2026-05-06 09:08 54.41524 74.47591 38003 ft 430 kts 261°
2026-05-06 09:08 54.40557 74.39198 38010 ft 430 kts 261°
2026-05-06 09:09 54.39196 74.27459 38000 ft 431 kts 260°
2026-05-06 09:09 54.38022 74.17422 38000 ft 430 kts 260°
2026-05-06 09:10 54.36843 74.07425 38003 ft 430 kts 260°
2026-05-06 09:10 54.35649 73.97370 38000 ft 431 kts 260°
2026-05-06 09:11 54.34648 73.88998 38010 ft 430 kts 260°
2026-05-06 09:11 54.33241 73.77328 38009 ft 430 kts 260°
2026-05-06 09:12 54.32030 73.67366 38009 ft 430 kts 260°
2026-05-06 09:12 54.31012 73.59038 38013 ft 430 kts 260°
2026-05-06 09:13 54.29779 73.49030 38021 ft 429 kts 260°
2026-05-06 09:13 54.28347 73.37510 38016 ft 429 kts 260°
2026-05-06 09:14 54.27309 73.29204 38020 ft 428 kts 259°
2026-05-06 09:14 54.25848 73.17597 38024 ft 429 kts 259°
2026-05-06 09:15 54.24795 73.09292 38027 ft 427 kts 259°
2026-05-06 09:15 54.23313 72.97682 38023 ft 429 kts 259°
2026-05-06 09:16 54.22258 72.89471 38016 ft 427 kts 259°
2026-05-06 09:16 54.20765 72.77932 38026 ft 428 kts 259°
2026-05-06 09:17 54.19689 72.69682 38026 ft 428 kts 259°
2026-05-06 09:17 54.18386 72.59754 38028 ft 427 kts 259°
2026-05-06 09:18 54.17082 72.49892 38029 ft 427 kts 259°
2026-05-06 09:18 54.14970 72.38646 38029 ft 430 kts 248°
2026-05-06 09:19 54.12550 72.31219 38026 ft 432 kts 240°
2026-05-06 09:19 54.09318 72.22592 38027 ft 433 kts 240°
2026-05-06 09:20 54.06094 72.14033 38024 ft 431 kts 240°
2026-05-06 09:20 54.02344 72.04034 38029 ft 430 kts 240°
2026-05-06 09:21 53.99654 71.96846 38017 ft 432 kts 240°
2026-05-06 09:21 53.96447 71.88292 38022 ft 431 kts 240°
2026-05-06 09:22 53.92675 71.78258 38027 ft 432 kts 240°
2026-05-06 09:22 53.89441 71.69685 38024 ft 432 kts 240°
2026-05-06 09:23 53.86758 71.62598 38017 ft 430 kts 240°
2026-05-06 09:23 53.83521 71.54072 38038 ft 431 kts 240°
2026-05-06 09:24 53.80281 71.45570 38038 ft 431 kts 240°
2026-05-06 09:24 53.76535 71.35770 38034 ft 431 kts 240°